Overview Statistics Trail Chart Weather Telemetry Raw packets
 

This is the latest recevied weather packets stored in our database for station/object EA2MKR. If no packets are shown the sender has not sent any weather packets the latest 10 day(s).

<< 1 2 3 4 >>
Time Temp. Humidity Pressure Rain* Wind** Luminosity Snow
1788636330 30° C 45% 957.7 hPa 0 mm - - -
1788636030 30° C 43% 957.7 hPa 0 mm - - -
1788635730 30.56° C 44% 957.7 hPa 0 mm - - -
1788635423 30.56° C 44% 957.7 hPa 0 mm - - -
1788635141 30.56° C 44% 957.7 hPa 0 mm - - -
1788634927 30.56° C 44% 957.7 hPa 0 mm - - -
1788634510 31.11° C 43% 957.6 hPa 0 mm - - -
1788634208 31.11° C 43% 957.7 hPa 0 mm - - -
1788633909 31.11° C 43% 957.6 hPa 0 mm - - -
1788633609 31.11° C 43% 957.5 hPa 0 mm - - -
1788633306 31.67° C 42% 957.5 hPa 0 mm - - -
1788633004 31.67° C 41% 957.4 hPa 0 mm - - -
1788632704 31.67° C 41% 957.4 hPa 0 mm - - -
1788632403 32.22° C 38% 957.3 hPa 0 mm - - -
1788632103 32.22° C 38% 957.3 hPa 0 mm - - -
1788631803 32.78° C 36% 957.4 hPa 0 mm - - -
1788631503 32.22° C 39% 957.3 hPa 0 mm - - -
1788631313 32.78° C 39% 957.2 hPa 0 mm - - -
1788630902 33.33° C 38% 957.2 hPa 0 mm - - -
1788630603 33.33° C 36% 957.2 hPa 0 mm - - -
1788630301 33.89° C 35% 957.1 hPa 0 mm - - -
1788630003 34.44° C 33% 956.9 hPa 0 mm - - -
1788629703 34.44° C 30% 956.9 hPa 0 mm - - -
1788629403 35° C 26% 956.9 hPa 0 mm - - -
1788629203 35° C 25% 956.9 hPa 0 mm - - -

* Rain latest hour (hover to see other rain measurements)
** Current wind speed in m/s (hover to see current wind gust speed)